Flag for United Kingdom Weather past 2 weeks in Belfast, Northern Ireland, United Kingdom

Now
54 °F

Light rain. Partly cloudy.


Feels Like: 48 °F
Forecast: N/A
Wind: 24 mph from Southwest

Location: Belfast / Harbour

Current Time: Dec 21, 2014 at 6:55:33 PM

Latest Report: Dec 21, 2014 at 6:20 PM


Visibility: N/A

Pressure: 29.80 "Hg

Humidity: 88%

Dew point: 50 °F

Location of BelfastLocation

Historic Weather in Belfast — Graph

°F

Belfast temperature yesterday

Maximum temperature yesterday: 46 °F (at 11:50 AM)
Minimum temperature yesterday: 43 °F (at 6:20 AM)
Average temperature yesterday: 45 °F

Past Weeks' High & Low Weather Summary

 TemperatureHumidityPressure
High55 °F (Dec 18, 9:50 AM)94% (Dec 6, 7:50 PM)30.30 "Hg (Dec 6, 7:50 PM)
Low32 °F (Dec 12, 7:20 AM)71% (Dec 9, 6:50 PM)29.24 "Hg (Dec 12, 6:20 AM)
Average43 °F85%29.75 "Hg
* Reported Dec 6 5:20 PM — Dec 21 5:50 PM, Belfast, Weather by CustomWeather, © 2014

Note: Actual official high and low records may vary slightly from our data, if they occured in-between our weather recording intervals... More about our weather records

Advertising

Belfast weather history for previous 24 hours

 ConditionsComfort  
Time TempWeatherWind HumidityBarometerVisibility
5:50 PM
Dec 21
55 °FSprinkles. Partly cloudy.24 mph82%29.77 "HgN/A
5:20 PM54 °FSprinkles. Partly cloudy.25 mph88%29.80 "HgN/A
4:50 PM54 °FScattered showers. Partly cloudy.24 mph88%29.80 "HgN/A
4:20 PM54 °FScattered showers. Partly cloudy.23 mph88%29.80 "HgN/A
3:50 PM54 °FScattered showers. Broken clouds.25 mph88%29.83 "HgN/A
3:20 PM54 °FBroken clouds.24 mph88%29.83 "HgN/A
2:50 PM54 °FScattered showers. Broken clouds.22 mph88%29.83 "HgN/A
2:20 PM54 °FScattered showers. Broken clouds.24 mph88%29.86 "HgN/A
1:50 PM54 °FSprinkles. Broken clouds.24 mph88%29.89 "Hg5 mi
1:20 PM54 °FPartly sunny.24 mph88%29.89 "HgN/A
12:50 PM54 °FPartly sunny.22 mph82%29.92 "HgN/A
12:20 PM54 °FPartly sunny.22 mph82%29.92 "HgN/A
11:50 AM54 °FPartly sunny.23 mph82%29.95 "HgN/A
11:20 AM54 °FPartly sunny.22 mph82%29.95 "HgN/A
10:50 AM54 °FPartly sunny.20 mph82%29.95 "HgN/A
10:20 AM52 °FPartly sunny.21 mph88%29.98 "HgN/A
9:50 AM52 °FPartly sunny.21 mph88%29.98 "HgN/A
9:20 AM52 °FPartly sunny.16 mph82%29.98 "HgN/A
8:50 AM50 °FPartly sunny.14 mph88%29.98 "HgN/A
8:20 AM50 °FPassing clouds.15 mph88%30.01 "HgN/A
7:50 AM48 °FPassing clouds.14 mph87%30.01 "HgN/A
7:20 AM48 °FPassing clouds.13 mph87%30.04 "HgN/A
6:50 AM48 °FPassing clouds.15 mph87%30.04 "HgN/A
6:20 AM46 °FPassing clouds.18 mph87%30.04 "HgN/A
8:20 PM
Dec 20
45 °FPassing clouds.14 mph87%30.27 "HgN/A
7:50 PM45 °FPassing clouds.14 mph87%30.27 "HgN/A
7:20 PM45 °FPassing clouds.8 mph87%30.30 "HgN/A
6:50 PM45 °FRain. Partly cloudy.12 mph87%30.30 "HgN/A
6:20 PM45 °FScattered showers. Partly cloudy.13 mph87%30.30 "Hg5 mi
Weather by CustomWeather, © 2014

See weather overviewHow to use our weather pages